STARLINK-35704 (66221 NORAD) Tracking and Keplerian Element Data

This shows tracking and keplerian element data for the satellite.

Feedback or suggestion? Click here.




ElementValue
Catalog66221
NameSTARLINK-35704
Epoch Orbit943
Epoch Day353.97889132
Epoch Year2025
RAAN241.7063
Inclination53.1616
Eccentricity0.0001861
Argument of Perigee92.7553
Mean Anonmoly267.3665
Mean Motion15.39641373
Decay Rate0.00023463
L11 66221U 25244R 25353.97889132 .00023463 00000+0 59433-3 0 9993
L22 66221 53.1616 241.7063 0001861 92.7553 267.3665 15.39641373 9434



Live tracking and technical data element details for STARLINK-35704 (NORAD 66221). STARLINK-35704 can be tracked NOW for your location showing map with azimuth and elevation plus other details from your city location.







IsCatalogInMostPopularTable: catalog: 66221, numindb: 8
Update: records affected: 1



GetName: 66221 STARLINK-35704

Hit Count: updated at: Mon, 20 Apr 2026 10:24:16 GMT